| time (UTC) | temp F | wind direction | speed knots | gust knots | rain 1hr in | rain 24hr in | rain mn in | humidity % | barometer mb |
| 20260503030032 | 48 | 300 | 0.0 | 0.0 | 0.00 | 0.09 | 0.09 | 2 | 1010.5 |
| 20260503024031 | 48 | 300 | 0.0 | 0.0 | 0.00 | 0.09 | 0.09 | 1 | 1010.7 |
| 20260503022031 | 48 | 300 | 0.0 | 0.0 | 0.00 | 0.09 | 0.09 | 3 | 1010.7 |
| 20260503021925 | 48 | 300 | 0.0 | 0.0 | 0.00 | 0.09 | 0.09 | 3 | 1010.7 |
| 20260503020031 | 48 | 300 | 0.0 | 0.0 | 0.00 | 0.09 | 0.09 | 5 | 1010.7 |
| 20260503014031 | 48 | 300 | 0.0 | 0.0 | 0.00 | 0.09 | 0.09 | 7 | 1010.3 |
| 20260503012031 | 49 | 300 | 0.0 | 0.0 | 0.00 | 0.09 | 0.09 | 7 | 1010.5 |
| 20260503011926 | 49 | 300 | 0.0 | 0.0 | 0.00 | 0.09 | 0.09 | 7 | 1010.5 |
| 20260503010031 | 49 | 300 | 0.0 | 0.0 | 0.00 | 0.09 | 0.09 | 9 | 1010.3 |
| 20260503004032 | 50 | 300 | 0.0 | 0.0 | 0.00 | 0.09 | 0.09 | 10 | 1010.2 |
| 20260503002031 | 50 | 300 | 0.0 | 0.0 | 0.00 | 0.09 | 0.09 | 12 | 1010.0 |
| 20260503001925 | 50 | 300 | 0.0 | 0.0 | 0.00 | 0.09 | 0.09 | 12 | 1010.1 |
| 20260503000032 | 50 | 300 | 0.0 | 0.0 | 0.00 | 0.09 | 0.09 | 13 | 1010.1 |
| 20260502234031 | 51 | 300 | 0.0 | 0.0 | 0.00 | 0.09 | 0.09 | 14 | 1010.1 |
| 20260502232031 | 51 | 300 | 0.0 | 0.0 | 0.00 | 0.09 | 0.09 | 15 | 1010.0 |
| 20260502231925 | 51 | 300 | 0.0 | 0.0 | 0.00 | 0.09 | 0.09 | 16 | 1010.0 |
| 20260502230031 | 51 | 300 | 0.0 | 0.0 | 0.01 | 0.09 | 0.09 | 15 | 1009.9 |
| 20260502224031 | 51 | 301 | 0.0 | 0.0 | 0.01 | 0.09 | 0.09 | 17 | 1009.9 |
| 20260502222031 | 51 | 301 | 0.0 | 0.0 | 0.01 | 0.09 | 0.09 | 16 | 1009.9 |
| 20260502221925 | 51 | 301 | 0.0 | 0.0 | 0.01 | 0.09 | 0.09 | 16 | 1010.0 |
| 20260502220032 | 51 | 301 | 0.0 | 0.0 | 0.04 | 0.08 | 0.08 | 14 | 1009.7 |
| 20260502214031 | 51 | 301 | 0.0 | 0.0 | 0.04 | 0.08 | 0.08 | 14 | 1009.8 |
| 20260502212031 | 50 | 301 | 0.0 | 0.0 | 0.04 | 0.08 | 0.08 | 16 | 1009.9 |
| 20260502211925 | 50 | 301 | 0.0 | 0.0 | 0.04 | 0.08 | 0.08 | 17 | 1009.9 |
| 20260502210031 | 50 | 301 | 0.0 | 8.7 | 0.00 | 0.04 | 0.04 | 23 | 1009.9 |
| 20260502204031 | 50 | 301 | 0.0 | 8.7 | 0.00 | 0.04 | 0.04 | 32 | 1010.0 |
| 20260502202032 | 52 | 301 | 0.0 | 8.7 | 0.00 | 0.04 | 0.04 | 50 | 1010.0 |
| 20260502201925 | 52 | 301 | 0.0 | 8.7 | 0.00 | 0.04 | 0.04 | 50 | 1010.1 |
| 20260502200031 | 55 | 223 | 0.0 | 7.0 | 0.00 | 0.04 | 0.04 | 64 | 1009.6 |
| 20260502194031 | 55 | 188 | 0.0 | 7.0 | 0.00 | 0.04 | 0.04 | 65 | 1009.8 |
| 20260502192033 | 56 | 186 | 0.0 | 7.0 | 0.00 | 0.04 | 0.04 | 64 | 1010.0 |
| 20260502191925 | 56 | 190 | 0.9 | 7.0 | 0.00 | 0.04 | 0.04 | 64 | 1010.1 |
| 20260502190033 | 54 | 182 | 0.0 | 7.8 | 0.01 | 0.04 | 0.04 | 63 | 1010.5 |
| 20260502184031 | 54 | 206 | 0.0 | 7.8 | 0.01 | 0.04 | 0.04 | 62 | 1010.5 |
| 20260502182031 | 54 | 184 | 6.1 | 7.8 | 0.01 | 0.04 | 0.04 | 52 | 1010.6 |
| 20260502181925 | 54 | 187 | 0.0 | 7.8 | 0.01 | 0.04 | 0.04 | 52 | 1010.6 |
| 20260502164032 | 53 | 214 | 0.0 | 4.3 | 0.00 | 0.00 | 0.00 | 43 | 1011.0 |
| 20260502162031 | 53 | 192 | 0.0 | 4.3 | 0.00 | 0.00 | 0.00 | 47 | 1011.3 |
| 20260502161926 | 53 | 191 | 0.0 | 4.3 | 0.00 | 0.00 | 0.00 | 49 | 1011.2 |
| 20260502160105 | 53 | 192 | 0.0 | 0.0 | 0.00 | 0.00 | 0.00 | 53 | 1011.2 |
| 20260502152034 | 53 | 190 | 0.0 | 0.0 | 0.00 | 0.00 | 0.00 | 64 | 1011.4 |
| 20260502151925 | 53 | 190 | 0.0 | 0.0 | 0.00 | 0.00 | 0.00 | 64 | 1011.3 |
| 20260502122032 | 49 | 186 | 0.0 | 0.0 | 0.00 | 0.00 | 0.00 | 49 | 1012.1 |
| 20260502121925 | 49 | 186 | 0.0 | 0.0 | 0.00 | 0.00 | 0.00 | 49 | 1012.1 |
| 20260502120110 | 49 | 186 | 0.0 | 0.0 | 0.00 | 0.00 | 0.00 | 51 | 1012.6 |
| 20260502112031 | 49 | 185 | 0.0 | 0.0 | 0.00 | 0.00 | 0.00 | 48 | 1011.9 |
| 20260502111925 | 49 | 185 | 0.0 | 0.0 | 0.00 | 0.00 | 0.00 | 47 | 1011.9 |
| 20260502110031 | 48 | 184 | 0.0 | 0.0 | 0.00 | 0.00 | 0.00 | 50 | 1011.8 |
| 20260502104031 | 48 | 184 | 0.0 | 0.0 | 0.00 | 0.00 | 0.00 | 52 | 1011.6 |
| 20260502102031 | 48 | 184 | 0.0 | 0.0 | 0.00 | 0.00 | 0.00 | 52 | 1011.5 |
| 20260502101925 | 48 | 184 | 0.0 | 0.0 | 0.00 | 0.00 | 0.00 | 52 | 1011.6 |
| 20260502070031 | 49 | 184 | 0.0 | 0.0 | 0.00 | 0.00 | 0.00 | 65 | 1011.3 |
| 20260502064031 | 49 | 184 | 0.0 | 0.0 | 0.00 | 0.00 | 0.00 | 65 | 1011.3 |
| 20260502062031 | 49 | 184 | 0.0 | 0.0 | 0.00 | 0.00 | 0.00 | 66 | 1011.5 |
| 20260502061925 | 49 | 184 | 0.0 | 0.0 | 0.00 | 0.00 | 0.00 | 66 | 1011.5 |
| 20260502060031 | 50 | 184 | 0.0 | 0.0 | 0.00 | 0.00 | 0.00 | 66 | 1011.5 |
| 20260502054031 | 50 | 191 | 0.0 | 0.0 | 0.00 | 0.00 | 0.00 | 67 | 1011.8 |
| 20260502052031 | 50 | 176 | 0.0 | 0.0 | 0.00 | 0.00 | 0.00 | 67 | 1011.7 |
| 20260502051925 | 50 | 175 | 0.0 | 0.0 | 0.00 | 0.00 | 0.00 | 67 | 1011.7 |
| 20260502050031 | 50 | 190 | 0.0 | 0.0 | 0.00 | 0.00 | 0.00 | 67 | 1011.9 |
| 20260502044031 | 50 | 186 | 0.0 | 0.0 | 0.00 | 0.00 | 0.00 | 67 | 1011.8 |
| 20260502042031 | 50 | 186 | 0.0 | 0.0 | 0.00 | 0.00 | 0.00 | 67 | 1011.8 |
| 20260502041925 | 50 | 186 | 0.0 | 0.0 | 0.00 | 0.00 | 0.00 | 67 | 1011.8 |
| 20260502040031 | 50 | 186 | 0.0 | 0.0 | 0.00 | 0.00 | 0.00 | 67 | 1011.9 |
| 20260502034031 | 51 | 186 | 0.0 | 0.0 | 0.00 | 0.00 | 0.00 | 67 | 1011.9 |
| 20260502032031 | 51 | 184 | 0.0 | 0.0 | 0.00 | 0.00 | 0.00 | 66 | 1012.0 |
| 20260502031925 | 51 | 184 | 0.0 | 0.0 | 0.00 | 0.00 | 0.00 | 66 | 1012.0 |